Location: Lancaster
(54.0470°N, 2.8020°W)
Time: 23:33:58
(UTC+01:00)

COSMOS 2428 - Visible Passes

Search period start: 27 March 2017 00:00
Search period end: 06 April 2017 00:00
Orbit: 847 x 855 km, 70.9° (Epoch: 26 March)

Date Brightness Start Highest point End Pass type
(mag) Time Alt. Az. Time Alt. Az. Time Alt. Az.
27 Mar 4.9 03:52:53 10° SE 03:56:47 19° E 04:00:43 10° ENE visible
27 Mar 2.7 05:34:37 10° SSW 05:40:19 88° ESE 05:46:04 10° NNE visible
28 Mar 4.8 03:41:01 11° SE 03:44:44 19° E 03:48:40 10° ENE visible
28 Mar 2.7 05:23:03 13° SSW 05:28:14 88° ESE 05:33:59 10° NNE visible
29 Mar 4.8 03:29:33 13° SE 03:32:39 20° E 03:36:35 10° ENE visible
29 Mar 2.7 05:11:34 16° SSW 05:16:11 88° ESE 05:21:55 10° NNE visible
30 Mar 4.7 03:18:00 15° SE 03:20:35 20° E 03:24:31 10° NE visible
30 Mar 2.7 05:00:02 20° SSW 05:04:06 88° ESE 05:09:51 10° NNE visible
31 Mar 4.6 03:06:25 16° SE 03:08:30 20° E 03:12:28 10° NE visible
31 Mar 2.7 04:48:27 24° SSW 04:52:02 89° ESE 04:57:47 10° NNE visible
01 Apr 4.6 02:54:46 17° ESE 02:56:26 20° E 03:00:24 10° NE visible
01 Apr 2.7 04:36:48 28° SSW 04:39:58 89° ESE 04:45:42 10° NNE visible
02 Apr 4.5 02:43:05 18° ESE 02:44:21 20° E 02:48:20 10° NE visible
02 Apr 2.7 04:25:06 32° SSW 04:27:53 89° ESE 04:33:39 10° NNE visible
03 Apr 4.5 02:31:22 19° ESE 02:32:17 20° E 02:36:16 10° NE visible
03 Apr 2.7 04:13:23 36° SSW 04:15:49 89° ESE 04:21:34 10° NNE visible
03 Apr 4.0 05:55:59 10° W 06:00:51 28° NW 06:05:44 10° NNE visible
04 Apr 4.5 02:19:36 19° ESE 02:20:13 20° E 02:24:12 10° NE visible
04 Apr 2.6 04:01:37 41° SSW 04:03:45 89° ESE 04:09:30 10° NNE visible
04 Apr 4.0 05:43:55 10° W 05:48:47 28° NW 05:53:40 10° NNE visible
05 Apr 4.5 02:07:48 20° ESE 02:08:08 20° E 02:12:08 10° NE visible
05 Apr 2.6 03:49:49 45° SSW 03:51:41 89° ESE 03:57:26 10° NNE visible
05 Apr 4.0 05:31:51 10° W 05:36:43 28° NW 05:41:36 10° NNE visible
